User: anonymous   Login
Location: Unspecified
(0.0000°N, 0.0000°E)
Time: 09:08:09
(UTC+00:00)
Language:

Courier 1B - Orbit

View from above orbital plane
View from above orbital plane
View from above satellite
View from above satellite

Ground track
Ground track

The orbit data is extracted from the following two-line orbital elements,

1    58U 60013A   20093.79271386 +.00000081 +00000-0 -90387-5 0  9992
2    58 028.3265 118.4728 0165018 162.8352 197.7855 13.46321436928419
Epoch (UTC): 02 April 2020 19:01:30
Eccentricity: 0.0165018
inclination: 28.3265°
perigee height: 962 km
apogee height: 1209 km
right ascension of ascending node: 118.4728°
argument of perigee: 162.8352°
revolutions per day: 13.46321436
mean anomaly at epoch: 197.7855°
orbit number at epoch: 92841

The dashed part of the orbit path shows where the satellite is in the earth's shadow,  

DLR